Location: Burbank
(38.7788°N, 114.0429°W)
Time: 02:17:34
(UTC+00:00)

Tiros 1 despin weight - Pass Details

Date: 14 May 2026
Orbit: 554 x 591 km, 48.2° (Epoch: 6 June)

Event Time Altitude Azimuth Distance (km) Brightness Sun altitude
Rises 13:36:19 0° 254° (WSW) 2,749 ? 12.3°
Reaches altitude 10° 13:38:39 10° 261° (W) 1,849 ? 12.7°
Maximum altitude 13:42:44 46° 335° (NNW) 754 ? 13.5°
Drops below altitude 10° 13:46:47 10° 50° (NE) 1,839 ? 14.3°
Sets 13:49:06 0° 56° (NE) 2,733 ? 14.7°
